Home > Weather > London > Past weeks

Flag for United Kingdom Weather for the Past 2 Weeks in London, England, United Kingdom

Now
50 °F

Drizzle. Mostly cloudy.


Feels Like: 44 °F
Forecast: 49 / 53 °F
Wind: 18 mph from Southwest

Location: Northolt

Current Time: Feb 6, 2016 at 10:10:42 AM

Latest Report: Feb 6, 2016 at 9:50 AM


Visibility: 5 mi

Pressure: 29.53 "Hg

Humidity: 88%

Dew point: 46 °F

Location of LondonLocation

Historic Weather in London — Graph

°F

London Temperature Yesterday

Maximum temperature yesterday: 54 °F (at 10:50 AM)
Minimum temperature yesterday: 48 °F (at 6:50 AM)
Average temperature yesterday: 50 °F

High & Low Weather Summary for the Past Weeks

 TemperatureHumidityPressure
High61 °F (Jan 24, 12:50 PM)100% (Jan 22, 12:50 PM)30.45 "Hg (Jan 22, 12:50 PM)
Low36 °F (Jan 23, 6:50 AM)46% (Jan 30, 1:50 PM)29.56 "Hg (Feb 6, 8:50 AM)
Average48 °F80%30.04 "Hg
* Reported Jan 22 8:00 AM — Feb 6 8:50 AM, London, Weather by CustomWeather, © 2016

Note: Actual official high and low records may vary slightly from our data, if they occured in-between our weather recording intervals... More about our weather records

Advertising

London Weather History for the Previous 24 Hours

 ConditionsComfort  
Time TempWeatherWind HumidityBarometerVisibility
8:50 AM
Sat, Feb 6
50 °FPartly sunny.16 mph88%29.56 "HgN/A
7:50 AM50 °FPartly sunny.17 mph88%29.59 "HgN/A
6:50 AM50 °FPassing clouds.14 mph88%29.62 "HgN/A
5:50 AM50 °FPassing clouds.14 mph88%29.62 "HgN/A
4:50 AM48 °FPassing clouds.12 mph94%29.68 "HgN/A
3:50 AM48 °FPassing clouds.9 mph94%29.68 "HgN/A
2:50 AM48 °FPassing clouds.10 mph94%29.71 "HgN/A
1:50 AM48 °FPassing clouds.12 mph94%29.74 "HgN/A
12:50 AM48 °FOvercast.14 mph94%29.77 "Hg6 mi
11:50 PM
Fri, Feb 5
50 °FPassing clouds.17 mph82%29.77 "HgN/A
10:50 PM50 °FPassing clouds.18 mph82%29.80 "HgN/A
9:50 PM48 °FOvercast.17 mph94%29.80 "Hg6 mi
8:50 PM50 °FDrizzle. Overcast.18 mph88%29.83 "HgN/A
7:50 PM50 °FLight rain. Mostly cloudy.18 mph82%29.86 "HgN/A
6:50 PM50 °FLight rain. Mostly cloudy.16 mph82%29.89 "HgN/A
5:50 PM52 °FMostly cloudy.15 mph67%29.92 "HgN/A
4:50 PM52 °FBroken clouds.20 mph72%29.92 "HgN/A
3:50 PM52 °FPartly sunny.15 mph77%29.95 "HgN/A
2:50 PM50 °FDrizzle. Partly sunny.14 mph88%29.98 "HgN/A
1:50 PM52 °FDrizzle. Broken clouds.16 mph82%30.01 "Hg5 mi
12:50 PM52 °FPartly sunny.17 mph82%30.04 "HgN/A
11:50 AM52 °FDrizzle. Partly sunny.16 mph82%30.07 "HgN/A
10:50 AM54 °FPartly sunny.14 mph72%30.09 "HgN/A
Weather by CustomWeather, © 2016

See weather overviewHow to use our weather pages